Weather History for Morgantown, WV

Change the Weather History Date:

Friday, November 8, 2013

  Actual Average Record
Temperature  
Mean Temperature 38 °F 48 °F  
Max Temperature 48 °F 57 °F 73 °F (2009)
Min Temperature 28 °F 38 °F 19 °F (1971)
Degree Days  
Heating Degree Days 27 18  
Month to date heating degree days 129 132  
Since 1 July heating degree days 529 574  
Cooling Degree Days 0 0  
Month to date cooling degree days 0 0  
Year to date cooling degree days 906 813  
Moisture  
Dew Point 26 °F    
Average Humidity 69    
Maximum Humidity 92    
Minimum Humidity 45    
Precipitation  
Precipitation 0.00 in 0.11 in 1.09 in (1996)
Month to date precipitation 1.02 0.88  
Year to date precipitation 34.00 36.34  
Sea Level Pressure  
Sea Level Pressure 30.27 in    
Wind  
Wind Speed 4 mph (West)    
Max Wind Speed 12 mph    
Max Gust Speed 20 mph    
Visibility 10 miles    
Events      
T = Trace of Precipitation, MM = Missing Value Source: NWS Daily Summary

Daily Weather History Graph

Daily Weather History Graph

Search for Another Location

Airport:

Trip Planner

Search our weather history database for the weather conditions in past years. The results will help you decide how hot, cold, wet, or windy it might be!

Date:

Astronomy

Nov. 08, 2013 Rise Set
Actual Time 6:56 AM EST 5:10 PM EST
Civil Twilight 6:27 AM EST 5:38 PM EST
Nautical Twilight 5:55 AM EST 6:10 PM EST
Astronomical Twilight 5:24 AM EST 6:42 PM EST
Moon 11:50 AM EST (11/8) 10:29 PM EST (11/8)
Length of Visible Light 11h 10m
Length of Day
10h 13m
Waxing Crescent, 33% of the Moon is Illuminated
Nov 8
Waxing Crescent
Nov 10
First Quarter
Nov 17
Full
Nov 25
Last Quarter
Dec 2
New

Hourly Weather History & Observations

Time (EST) Temp. Windchill Dew Point Humidity Pressure Visibility Wind Dir Wind Speed Gust Speed Precip Events Conditions
12:53 AM 39.0 °F 33.4 °F 26.1 °F 60% 30.16 in 10.0 mi SW 8.1 mph - N/A   Overcast
1:53 AM 37.9 °F 32.1 °F 26.1 °F 62% 30.15 in 10.0 mi SSW 8.1 mph - N/A   Overcast
2:53 AM 37.9 °F 33.5 °F 26.1 °F 62% 30.15 in 10.0 mi SSW 5.8 mph - N/A   Mostly Cloudy
3:53 AM 37.0 °F 32.4 °F 26.1 °F 65% 30.17 in 10.0 mi SW 5.8 mph - N/A   Scattered Clouds
4:53 AM 37.0 °F 34.5 °F 26.1 °F 65% 30.19 in 10.0 mi Variable 3.5 mph - N/A   Overcast
5:53 AM 37.9 °F 35.5 °F 27.0 °F 65% 30.21 in 10.0 mi West 3.5 mph - N/A   Overcast
6:53 AM 37.9 °F 35.5 °F 28.0 °F 68% 30.23 in 10.0 mi West 3.5 mph - N/A   Mostly Cloudy
7:53 AM 37.9 °F 35.5 °F 28.0 °F 68% 30.27 in 10.0 mi Variable 3.5 mph - N/A   Clear
8:53 AM 39.0 °F 35.7 °F 28.9 °F 67% 30.29 in 10.0 mi Variable 4.6 mph - N/A   Clear
9:53 AM 42.1 °F 36.6 °F 28.9 °F 60% 30.30 in 10.0 mi WNW 9.2 mph - N/A   Mostly Cloudy
10:02 AM 39.2 °F 33.6 °F 26.6 °F 61% 30.28 in 10.0 mi West 8.1 mph - N/A   Mostly Cloudy
10:53 AM 41.0 °F 35.2 °F 26.1 °F 55% 30.32 in 10.0 mi West 9.2 mph 16.1 mph N/A   Overcast
11:53 AM 43.0 °F 40.3 °F 25.0 °F 49% 30.31 in 10.0 mi NW 4.6 mph - N/A   Overcast
12:53 PM 43.0 °F 38.2 °F 23.0 °F 45% 30.29 in 10.0 mi WNW 8.1 mph - N/A   Mostly Cloudy
1:53 PM 44.1 °F 38.6 °F 24.1 °F 45% 30.28 in 10.0 mi West 10.4 mph 16.1 mph N/A   Mostly Cloudy
2:53 PM 44.1 °F 39.5 °F 24.1 °F 45% 30.28 in 10.0 mi WNW 8.1 mph - N/A   Mostly Cloudy
3:53 PM 45.0 °F 41.8 °F 25.0 °F 46% 30.28 in 10.0 mi NW 5.8 mph - N/A   Mostly Cloudy
4:53 PM 43.0 °F 41.3 °F 23.0 °F 45% 30.29 in 10.0 mi Variable 3.5 mph - N/A   Clear
5:53 PM 41.0 °F - 24.1 °F 51% 30.30 in 10.0 mi Calm Calm - N/A   Partly Cloudy
6:53 PM 39.9 °F - 24.1 °F 53% 30.32 in 10.0 mi Calm Calm - N/A   Clear
7:53 PM 35.1 °F - 26.1 °F 70% 30.32 in 10.0 mi Calm Calm - N/A   Clear
8:53 PM 33.1 °F - 26.1 °F 75% 30.32 in 10.0 mi Calm Calm - N/A   Clear
9:53 PM 30.0 °F - 27.0 °F 88% 30.33 in 10.0 mi Calm Calm - N/A   Clear
10:53 PM 28.9 °F - 26.1 °F 89% 30.33 in 10.0 mi Calm Calm - N/A   Clear
11:53 PM 28.9 °F - 26.1 °F 89% 30.32 in 10.0 mi Calm Calm - N/A   Clear